Location: Helsinki
(60.1699°N, 24.9384°E)
Time: 23:58:29
(UTC+02:00)

A-11 Canister half - Pass Details

Date: 01 November 2020
Orbit: 1516 x 1684 km, 47.2° (Epoch: 26 November)

Event Time Altitude Azimuth Distance (km) Brightness Sun altitude
Rises 23:12:31 0° 262° (W) 4,924 11.7 -43.7°
Reaches altitude 10° 23:16:00 10° 254° (WSW) 3,922 11.1 -43.8°
Enters shadow 23:16:04 10° 254° (WSW) 3,903 11.1 -43.8°
Maximum altitude 23:24:48 37° 193° (SSW) 2,358 - -44.1°
Drops below altitude 10° 23:33:21 10° 131° (SE) 3,809 - -44.3°
Sets 23:36:41 0° 123° (ESE) 4,769 - -44.4°
